Probability
0 0 0 0 0 0 0 0 0 0 0 1 3 6 11 18 25 29 33 38 40 36 33 35 36 34 32 34 38 38 35 34 33 32 31 26 22 19 18 17 14 12 9 6
0 0 0 0 0 0 0 0 0 0 1 3 5 8 15 23 28 31 37 43 44 40 37 38 39 37 36 38 40 41 39 35 32 31 28 24 21 20 19 17 14 12 9 8
0 0 0 0 0 0 0 1 2 3 4 7 11 15 20 27 32 37 43 50 51 46 43 42 41 40 41 42 43 43 39 33 29 26 23 20 20 19 18 16 14 11 11 10
0 0 0 0 0 0 1 4 6 8 10 14 18 22 25 30 35 42 50 56 56 51 48 48 45 43 43 43 44 41 35 29 26 23 19 18 18 17 15 14 13 12 10 10
0 0 0 1 1 2 3 6 9 12 18 23 25 26 30 36 39 44 51 58 59 55 53 53 49 45 43 43 42 39 32 27 25 21 19 18 17 16 15 15 14 11 8 8
0 0 0 1 2 3 4 9 14 19 26 32 31 32 40 47 47 47 52 57 58 57 57 57 51 44 41 40 39 36 31 27 24 21 20 20 18 16 15 15 13 10 7 5
0 0 1 3 5 8 14 23 28 30 35 40 41 44 50 56 54 51 52 56 58 58 59 58 51 44 40 38 36 34 31 26 23 22 21 20 19 17 15 13 11 9 6 4
1 2 6 12 19 25 34 42 42 41 43 49 52 52 53 55 55 53 53 57 60 61 59 55 50 47 45 39 34 32 28 24 22 22 20 19 17 16 13 11 9 7 5 4
6 10 18 27 37 44 48 51 50 47 48 53 55 52 50 50 52 54 55 59 62 62 57 51 47 48 47 40 33 28 24 21 21 20 19 18 16 15 12 10 8 6 4 3
17 22 31 39 46 49 48 48 48 48 49 52 53 52 50 48 49 52 55 59 61 59 54 48 43 42 42 39 32 26 22 20 20 19 18 16 15 13 11 9 7 6 4 3
26 32 40 45 47 48 48 47 46 45 46 49 50 50 49 47 46 47 49 53 55 54 49 43 38 35 35 34 30 25 22 21 20 19 17 14 12 10 8 7 6 5 4 3
30 36 43 47 49 50 50 50 48 45 43 43 44 43 42 42 41 41 42 44 45 44 40 36 32 29 28 28 26 24 23 22 21 19 16 12 9 7 5 4 3 3 2 1
33 36 41 47 50 50 50 50 49 45 41 38 36 34 33 34 35 34 35 34 33 32 31 29 25 21 19 20 21 22 22 21 20 18 15 11 8 6 4 2 1 1 1 0
30 31 36 43 46 46 46 45 44 41 38 34 30 27 26 27 28 28 28 27 25 23 23 21 18 15 13 14 16 18 19 19 18 16 13 9 7 6 5 3 1 0 0 0
23 24 29 35 38 38 38 38 38 35 31 27 24 22 22 22 23 23 23 22 21 19 17 15 12 10 11 13 15 16 17 17 16 13 9 7 6 5 4 2 1 0 0 0
21 21 24 28 31 30 29 30 30 28 25 22 19 19 19 19 18 19 19 18 16 15 13 11 8 8 10 13 15 16 15 13 12 10 8 7 5 3 1 1 1 0 0 0
17 18 19 22 24 24 23 23 23 20 19 18 17 17 16 15 15 16 16 14 13 12 10 8 6 7 9 12 13 14 13 9 8 8 8 7 5 2 1 0 0 0 0 0
12 13 14 16 18 19 18 18 17 14 13 13 14 14 13 12 12 13 13 12 11 9 6 4 4 5 8 9 10 11 10 8 6 6 6 6 5 3 1 0 0 0 0 0
9 9 10 12 14 15 15 15 14 12 12 12 11 10 9 9 9 10 10 9 7 5 3 1 1 3 5 6 7 7 7 6 5 4 4 3 3 2 1 0 0 0 0 0
6 6 8 10 13 13 14 13 12 12 12 10 8 7 6 6 7 8 7 6 4 2 1 0 0 1 3 3 4 4 4 4 3 3 2 2 1 0 0 0 0 0 0 0
5 4 6 10 12 13 12 11 9 8 8 6 4 4 4 5 6 6 5 4 3 1 0 0 0 1 2 2 2 3 3 3 3 2 1 1 0 0 0 0 0 0 0 0
7 6 6 10 13 12 11 9 6 5 4 2 1 2 4 5 4 3 3 3 2 1 0 0 0 0 1 1 1 3 3 3 2 1 0 0 0 0 0 0 0 0 0 0
7 6 7 9 11 11 10 7 5 4 3 1 0 2 3 3 2 1 1 1 1 0 0 0 0 0 0 0 1 2 2 1 1 1 0 0 0 0 0 0 0 0 0 0
5 5 6 7 8 9 8 6 5 4 2 1 1 2 3 1 1 0 0 0 0 0 0 0 0 0 0 0 0 1 1 0 0 0 0 0 0 0 0 0 0 0 0 0
6 5 4 5 6 7 5 4 3 2 2 1 1 1 1 0 0 0 0 0 0 0 0 0 0 0 0 0 0 0 0 0 0 0 0 0 0 0 1 1 0 0 0 0
6 5 4 3 4 4 2 1 1 1 1 1 0 0 0 0 0 0 0 0 0 0 0 0 0 0 0 0 0 0 0 0 0 0 0 1 1 1 2 2 1 1 0 0
4 4 3 2 2 2 1 0 0 0 0 0 0 0 0 0 0 0 0 0 0 0 0 0 0 0 0 0 0 0 0 0 0 0 1 2 2 2 3 3 2 2 1 0
Wind_Speed
8 5 9 12 13 13 14 12 11 8 8 5 2 2 4 6 8 9 9 9 9 9 9 8 8 7 7 6 6 6 6 6 5 5 4 4 4 3 3 3 4 4 4 4
9 8 10 10 11 12 12 11 11 9 6 1 2 3 5 6 8 9 9 9 9 9 9 9 8 8 8 7 7 7 6 6 6 6 5 5 5 5 5 5 5 5 5 5
10 10 11 13 11 12 11 10 10 10 5 2 3 3 4 5 7 8 9 9 9 8 8 8 8 8 8 8 8 7 7 6 7 6 6 5 5 6 5 5 5 5 5 5
9 10 14 7 5 8 9 8 7 5 2 1 2 2 2 3 5 6 7 8 8 7 8 8 8 9 8 9 8 8 7 7 6 6 6 6 6 5 5 5 5 5 5 6
9 12 11 6 6 8 9 7 5 5 3 2 4 4 4 3 3 5 6 7 7 7 8 9 9 9 9 9 9 8 7 6 6 6 7 7 6 6 5 5 5 5 5 5
10 13 12 7 6 4 7 8 4 4 4 4 5 6 4 4 3 4 6 6 7 7 8 9 8 9 9 9 8 7 6 6 6 5 6 7 7 6 6 5 5 5 6 5
12 11 6 4 5 7 10 3 3 3 3 3 2 3 4 4 5 5 6 7 8 8 8 7 8 9 9 8 7 6 7 7 7 7 7 7 7 6 6 6 6 6 6 5
11 12 6 4 6 5 2 3 2 2 2 2 3 5 5 5 6 6 7 7 8 8 7 7 7 8 8 7 7 7 7 7 7 7 6 7 7 6 6 6 7 6 5 5
3 1 5 2 2 3 2 2 2 2 3 4 5 5 5 5 6 6 7 7 7 8 8 6 5 6 7 7 7 8 8 7 7 7 6 6 7 7 6 5 4 4 4 4
2 3 2 2 2 2 1 2 2 2 3 4 5 5 6 5 5 5 6 7 6 7 7 6 5 5 6 7 7 8 8 8 7 7 7 6 4 4 4 4 4 4 3 4
3 3 3 3 1 2 2 2 3 4 4 5 6 5 5 5 5 5 5 5 6 6 6 6 5 5 6 6 7 8 8 7 7 7 6 6 4 3 2 3 2 1 2 3
1 2 1 3 2 1 2 3 3 4 4 5 5 5 5 5 4 4 5 5 5 5 6 6 5 5 5 6 6 8 7 7 6 6 6 6 6 5 9 7 7 7 6 3
2 1 1 1 1 1 3 4 4 4 5 5 5 5 5 4 4 4 4 5 5 5 5 5 5 5 5 5 6 6 6 6 5 6 6 6 6 6 6 6 6 6 5 5
0 1 2 2 2 3 4 5 6 6 5 5 4 5 5 5 5 4 4 4 4 5 5 5 5 5 5 5 6 6 6 6 5 5 5 5 5 5 5 6 6 5 5 5
2 2 2 3 4 4 5 5 5 5 5 5 4 4 4 4 4 4 3 3 4 4 4 4 4 4 4 5 5 6 5 5 5 5 5 5 5 5 5 6 5 6 6 6
2 3 3 4 4 5 5 5 4 4 4 4 4 4 4 3 4 4 3 3 3 3 3 4 4 4 5 5 6 5 5 6 5 5 5 5 5 5 5 5 5 5 5 6
5 5 5 5 4 4 3 3 4 4 4 3 3 3 4 4 4 4 3 3 3 3 3 4 4 5 5 6 6 5 5 6 7 6 5 6 5 5 5 5 5 5 4 4
5 3 3 4 4 3 3 2 3 3 3 3 3 4 4 5 4 4 4 4 4 3 3 4 4 5 5 6 5 5 5 6 6 5 5 5 5 5 5 5 5 5 5 6
4 3 3 3 3 3 3 3 3 2 3 4 4 4 4 4 4 4 5 5 5 5 4 5 5 5 6 5 5 5 6 6 6 5 5 5 5 5 5 5 5 5 5 6
3 3 3 2 2 2 3 3 3 3 4 4 5 5 4 4 4 5 5 4 3 3 5 5 6 5 5 6 5 5 6 6 6 5 5 5 5 5 5 5 5 5 5 5
3 3 3 3 2 2 2 3 3 4 4 5 5 5 5 4 5 5 5 4 4 4 5 6 5 5 5 5 5 5 5 5 5 5 5 5 5 5 5 5 5 4 4 4
2 2 2 2 2 2 1 2 3 3 4 4 4 4 5 5 5 5 4 3 4 5 5 5 4 4 5 5 5 5 5 5 5 5 5 4 5 5 5 5 5 5 4 4
2 1 1 1 1 1 1 1 2 2 3 3 4 5 5 4 4 4 4 3 4 5 4 3 6 7 5 5 4 4 5 5 4 4 4 4 4 4 4 5 4 4 4 4
1 1 1 1 1 1 1 1 1 1 2 2 3 3 4 3 3 3 2 5 5 5 3 5 7 6 5 4 4 4 4 4 4 4 4 4 4 4 4 4 4 4 4 4
1 1 1 1 1 1 1 1 2 2 2 2 3 3 3 2 2 3 4 5 6 5 5 6 7 6 5 3 3 3 3 3 3 3 3 3 4 4 4 3 3 3 3 3
0 0 1 0 0 1 1 1 2 2 2 2 2 2 2 2 3 4 4 5 6 4 4 4 5 5 4 3 3 3 3 4 4 4 3 3 4 3 3 3 3 3 3 2
1 1 1 1 1 1 1 2 2 2 2 2 2 2 2 3 3 4 5 5 5 4 4 4 4 4 3 3 3 3 3 3 3 3 4 3 3 2 3 3 2 2 3 3
Wind_Direction
242 216 204 206 204 208 225 239 244 232 235 235 210 161 148 152 157 157 157 157 158 161 155 156 154 155 155 154 152 151 152 148 141 133 122 118 114 108 103 94 87 81 76 68
212 210 213 215 212 212 222 234 241 243 236 202 120 146 152 160 165 168 166 164 162 161 159 159 157 156 153 152 151 153 151 145 138 132 129 125 111 98 91 86 80 79 77 73
208 201 210 217 214 213 216 224 232 231 224 151 168 165 167 172 175 175 171 168 165 164 161 159 158 154 152 148 146 146 146 145 140 139 133 124 117 112 107 100 94 86 82 82
213 200 221 217 207 220 221 221 232 249 249 212 184 158 158 172 177 176 171 167 163 160 155 154 151 148 145 142 142 144 146 146 143 142 132 124 121 115 111 109 102 94 89 89
219 215 215 182 187 206 213 217 221 231 219 170 143 159 135 113 156 171 166 161 157 154 147 145 145 144 146 145 144 146 147 145 145 144 135 130 127 124 119 116 110 106 98 96
219 228 220 189 166 200 222 211 191 209 204 181 189 219 138 113 128 138 140 142 144 139 134 136 141 145 147 146 147 149 146 139 137 137 134 133 130 128 124 123 118 111 97 89
220 226 220 117 143 184 215 180 134 185 189 191 195 4 90 115 116 120 128 135 136 132 130 134 140 146 148 147 148 145 137 134 134 135 135 132 129 129 129 127 118 109 102 92
220 226 197 117 178 204 53 56 102 128 140 142 112 105 110 106 111 120 127 130 131 126 123 128 141 148 147 146 143 139 139 139 137 139 137 134 133 134 137 137 134 128 120 112
245 242 72 97 78 57 54 72 79 94 111 125 127 122 112 104 108 116 124 127 127 125 123 124 133 144 144 141 143 143 142 140 139 138 134 138 142 145 148 151 149 141 141 131
184 133 110 123 108 84 62 65 78 105 122 130 126 122 114 109 111 117 123 130 129 128 125 125 129 131 136 142 146 147 145 144 145 143 139 133 138 146 148 149 151 147 143 138
188 149 152 144 96 68 84 96 104 108 116 123 123 121 115 112 111 114 117 120 124 128 129 126 126 128 134 139 148 148 145 146 147 144 139 135 124 90 114 91 64 119 135 145
191 146 209 119 78 85 122 119 114 116 115 111 116 118 114 108 110 116 120 121 125 128 127 128 132 131 133 141 150 151 149 153 151 147 146 144 137 116 57 67 72 60 45 54
24 41 49 93 97 104 126 119 118 117 115 114 113 121 121 116 112 113 117 123 129 128 128 132 134 133 134 143 152 155 153 153 153 152 151 152 150 150 139 108 85 76 70 73
189 180 161 162 135 120 120 114 110 106 104 102 106 115 121 121 114 113 115 120 122 122 128 133 134 135 140 148 152 154 153 147 153 152 152 154 156 158 155 151 146 133 112 106
205 214 172 145 144 135 132 132 129 124 116 109 111 114 119 120 117 108 107 113 120 126 133 137 140 143 149 153 154 153 153 151 151 147 151 155 157 160 158 155 150 146 142 138
187 175 169 166 162 156 153 146 138 131 125 125 126 122 119 118 117 114 121 138 143 140 142 150 153 153 157 156 152 150 141 133 147 150 151 155 159 161 159 158 160 160 160 155
207 194 183 183 177 169 164 156 146 143 138 140 138 138 139 143 144 141 148 158 151 146 154 157 156 158 164 164 162 155 147 147 154 157 158 160 161 164 165 169 167 165 163 143
227 215 201 194 186 177 173 162 155 156 157 158 163 168 169 166 166 160 156 154 148 148 153 152 148 156 162 165 164 157 158 162 168 165 163 166 168 172 172 171 173 174 164 152
204 198 191 192 193 186 181 175 179 177 176 179 180 183 186 178 165 159 158 165 170 172 160 142 143 165 161 160 168 168 168 165 167 167 166 162 176 177 177 178 180 181 176 167
185 186 185 175 169 175 183 184 189 196 198 196 190 187 186 177 166 166 171 181 188 166 153 150 166 168 162 162 185 173 168 166 167 167 169 173 179 179 182 186 185 185 186 185
173 174 173 168 164 173 191 205 207 204 199 196 194 191 186 179 175 177 186 186 163 153 152 157 177 168 162 156 194 180 169 168 170 175 179 180 181 183 185 191 194 196 194 192
144 138 142 148 154 158 172 204 203 199 192 189 189 185 181 182 183 185 191 185 157 150 166 172 171 138 142 173 185 179 176 177 177 175 174 177 181 188 194 197 199 199 197 198
103 110 130 132 134 135 150 184 180 184 187 185 183 183 185 184 189 188 185 164 157 161 179 155 123 130 163 193 178 177 174 172 171 169 169 177 185 193 198 201 202 203 202 203
126 123 119 108 120 147 143 110 120 150 167 176 176 173 176 179 187 189 150 133 141 159 159 122 133 155 196 190 171 169 167 167 171 174 174 178 187 197 200 200 203 204 205 211
111 100 101 151 177 159 128 150 146 152 161 152 147 157 178 182 172 151 141 143 142 156 149 141 154 172 194 181 168 167 168 169 179 188 186 192 194 193 194 196 203 206 205 204
104 98 70 65 80 132 155 164 152 148 155 151 145 147 142 135 143 148 145 147 150 154 147 148 161 181 191 182 176 176 176 169 182 202 201 199 195 190 186 191 197 199 195 193
162 150 140 121 126 140 140 142 135 140 154 152 143 141 138 137 140 139 141 147 153 159 158 161 168 176 176 177 176 178 183 185 190 195 191 191 189 187 182 192 203 195 190 180